Location: Unspecified
(0.0000°N, 0.0000°E)
Time: 16:47:54
(UTC+00:00)

Explorer 7 - Pass Details

Date: 26 November 2019
Orbit: 485 x 680 km, 50.3° (Epoch: 13 December)

Event Time Altitude Azimuth Distance (km) Brightness Sun altitude
Rises 16:50:59 0° 185° (S) 2,935 10.9 13.1°
Reaches altitude 10° 16:54:15 10° 162° (SSE) 2,058 9.8 12.4°
Maximum altitude 16:56:55 15° 127° (SE) 1,774 9.2 11.7°
Drops below altitude 10° 16:59:38 10° 93° (E) 2,094 9.3 11.1°
Sets 17:02:58 0° 70° (ENE) 3,018 9.9 10.3°
